Regional Weather Roundup
Issued by NWS

Home | Current Version | Previous Version | Text Only | Print | Product List | Glossary Off
Versions: 1 2 3 4 5 6 7 8 9 10 11 12 13 14 15 16 17 18 19 20 21 22 23 24 25 26 27 28 29 30 31 32 33 34 35 36 37 38 39 40 41 42 43 44 45 46 47 48 49 50

000
ASUS43 KLSX 231757
RWRMO

WEATHER SUMMARY FOR MISSOURI
NATIONAL WEATHER SERVICE SPRINGFIELD MO
100 PM CDT SAT SEP 23 2017

NOTE: "FAIR" INDICATES FEW OR NO CLOUDS BELOW 12,000 FEET WITH NO
       SIGNIFICANT WEATHER AND/OR OBSTRUCTIONS TO VISIBILITY.
       CURRENT SKY AND/OR WEATHER CONDITIONS ARE NOT AVAILABLE FOR
       CHILLICOTHE AND FARMINGTON.

MOZ001>031-035>038-043-044-053-054-231900-
...NORTHERN AND WESTERN MISSOURI...

CITY           SKY/WX    TMP DP  RH WIND       PRES   REMARKS
KANSAS CTY INT MOSUNNY   87  69  54 S13       30.03F HX  91
6HR MIN TEMP:  68; 6HR MAX TEMP:  87;

LEE`S SUMMIT   SUNNY     88  70  55 S10       30.04F HX  93
6HR MIN TEMP:  72; 6HR MAX TEMP:  88;

ST JOSEPH      SUNNY     91  67  44 SW14      30.00F HX  94
6HR MIN TEMP:  69; 6HR MAX TEMP:  91; 6HR PCP: TRACE;

CHILLICOTHE      N/A     89  72  56 CALM      30.03F HX  96
6HR MIN TEMP:  67; 6HR MAX TEMP:  89;


$$
MOZ066>068-077>081-088>096-101>105-231900-
...SOUTHWEST MISSOURI...

CITY           SKY/WX    TMP DP  RH WIND       PRES   REMARKS
SPRINGFIELD    MOSUNNY   88  65  46 SE7       30.05F HX  90
6HR MIN TEMP:  69; 6HR MAX TEMP:  89;

JOPLIN         MOSUNNY   88  68  51 S12       30.03F HX  91
6HR MIN TEMP:  69; 6HR MAX TEMP:  88;

BRANSON        PTSUNNY   90  61  37 NE3       30.07F

$$
MOZ032>034-039>042-045>050-055>058-069>072-231900-
...CENTRAL MISSOURI...

CITY           SKY/WX    TMP DP  RH WIND       PRES   REMARKS
COLUMBIA       NOT AVBL
JEFFERSON CITY SUNNY     88  66  48 E5        30.04F HX  90
6HR MIN TEMP:  66; 6HR MAX TEMP:  89;

ROLLA          MOSUNNY   88  64  44 E5        30.08F
6HR MIN TEMP:  67; 6HR MAX TEMP:  88;

SEDALIA        SUNNY     89  70  53 SW5       30.06F HX  94
6HR MIN TEMP:  68; 6HR MAX TEMP:  90;

WARRENSBURG    SUNNY     88  68  51 S5        30.04S HX  91

$$
MOZ051-052-059>065-231900-
...EAST CENTRAL MISSOURI...

CITY           SKY/WX    TMP DP  RH WIND       PRES   REMARKS
ST LOUIS INTL  PTSUNNY   89  64  43 E9        30.07F HX  90
6HR MIN TEMP:  70; 6HR MAX TEMP:  90;


$$
MOZ072>076-082>087-097>100-106>115-231900-
...SOUTH CENTRAL AND SOUTHEAST MISSOURI...

CITY           SKY/WX    TMP DP  RH WIND       PRES   REMARKS
CAPE GIRARDEAU SUNNY     91  66  43 N9        30.04F HX  93
6HR MIN TEMP:  63; 6HR MAX TEMP:  91;

POPLAR BLUFF   SUNNY     90  67  46 E7        30.03F HX  93
6HR MIN TEMP:  65; 6HR MAX TEMP:  90;

WEST PLAINS    CLOUDY    89  63  41 VRB7      30.08F HX  90
6HR MIN TEMP:  63; 6HR MAX TEMP:  90;


$$


USA.gov is the U.S. government's official web portal to all federal, state and local government web resources and services.